Location: Tierra Monte Subdivision
(35.2092°N, 106.4864°W)
Time: 21:53:09
(UTC+00:00)

Abrixas rocket - Pass Details

Date: 30 March 2020
Orbit: 345 x 352 km, 48.4° (Epoch: 25 May)

Event Time Altitude Azimuth Distance (km) Brightness Sun altitude
Rises 01:57:00 0° 218° (SW) 2,139 6.3 -7.2°
Reaches altitude 10° 01:59:03 10° 211° (SSW) 1,304 5.0 -7.6°
Maximum altitude 02:01:50 42° 138° (SE) 516 2.3 -8.2°
Drops below altitude 10° 02:04:39 10° 66° (ENE) 1,320 4.3 -8.7°
Enters shadow 02:04:57 - 64° (ENE) 1,439 4.5 -8.8°
